Location: Unspecified
(0.0000°N, 0.0000°E)
Time: 11:22:42
(UTC+00:00)

deb Explorer IX - Pass Details

Date: 19 November 2019
Orbit: 545 x 1105 km, 38.8° (Epoch: 08 December)

Event Time Altitude Azimuth Distance (km) Brightness Sun altitude
Rises 09:25:05 0° 305° (NW) 2,708 ? 50.5°
Reaches altitude 10° 09:27:21 10° 302° (WNW) 1,800 ? 51.0°
Maximum altitude 09:31:22 61° 221° (SW) 618 ? 51.9°
Drops below altitude 10° 09:35:31 10° 140° (SE) 1,863 ? 52.7°
Sets 09:37:54 0° 137° (SE) 2,813 ? 53.2°
